Other Public Products
Issued by NWS Grand Forks, ND

Home | Current Version | Previous Version | Text Only | Print | Product List | Glossary Off
Versions: 1 2 3 4 5 6 7 8 9 10 11 12 13 14 15 16 17 18 19 20 21 22 23 24 25 26 27 28 29 30 31 32 33 34 35 36 37 38 39 40 41 42 43 44 45 46 47 48 49 50

000
FPUS83 KFGF 061210
OPUFGF
PRAIRIE TO PINES WEATHER ROUNDUP
NATIONAL WEATHER SERVICE EASTERN NORTH DAKOTA/GRAND FORKS ND
600 AM CST FRI MAR 06 2015

 **SATELLITE DATA USED TO AUGMENT SKY COVER AT AUTOMATED STATIONS**
 *****  WEATHER ACROSS EASTERN NORTH DAKOTA  *****

CITY           SKY/WX    TMP DP  RH WIND       PRES   REMARKS
GRAND FORKS    CLEAR      8   4  83 W8        30.01R WCI  -4
6HR MIN TEMP:   8; 6HR MAX TEMP:  19;

GRAND FORKS AF CLEAR     12   6  77 NW8       30.01R WCI   0
GRAND CITY NWS   N/A     10 N/A N/A W9          N/A  WCI  -2
BUXTON         NOT AVBL
DEVILS LAKE    CLEAR     10   3  72 W9        30.02R WCI  -2
6HR MIN TEMP:   9; 6HR MAX TEMP:  21;

FARGO          CLEAR     13   7  77 NW10      30.02R WCI   0
6HR MIN TEMP:  11; 6HR MAX TEMP:  18;

WAHPETON ARPT  SUNNY     10   5  79 W3        30.03R
$$

 *****  WEATHER ACROSS CENTRAL AND WESTERN NORTH DAKOTA  *****

CITY           SKY/WX    TMP DP  RH WIND       PRES   REMARKS
JAMESTOWN      CLEAR     16  11  80 NW8       30.02R WCI   5
6HR MIN TEMP:  15; 6HR MAX TEMP:  23;

BISMARCK       CLEAR     16  12  84 W6        30.08R WCI   7
6HR MIN TEMP:  15; 6HR MAX TEMP:  26;

MINOT          CLEAR     18  11  74 W12       30.04R WCI   5
6HR MIN TEMP:  18; 6HR MAX TEMP:  26;

MINOT AFB      CLEAR     16  13  88 W9        30.03R WCI   4
6HR MIN TEMP:  15; 6HR MAX TEMP:  22;

GARRISON         N/A     15  10  80 NW10      30.05R WCI   2
6HR MIN TEMP:  13; 6HR MAX TEMP:  29;

WILLISTON      MOCLDY    17  13  84 CALM      30.06S
6HR MIN TEMP:  15; 6HR MAX TEMP:  31;

DICKINSON      PTCLDY    20  13  74 W6        30.03R WCI  12
6HR MIN TEMP:  20; 6HR MAX TEMP:  30;

HETTINGER      CLEAR     20  12  71 CALM      30.07R
6HR MIN TEMP:  17; 6HR MAX TEMP:  29;

$$

 *****  OTHER OBSERVATIONS NORTHEAST NORTH DAKOTA  *****

CITY           SKY/WX    TMP DP  RH WIND       PRES   REMARKS
WALHALLA         N/A     18   9  68 W7        30.00R WCI   8
LANGDON        NOT AVBL
CAVALIER       FAIR      14   9  79 W9        30.00R WCI   2
GRAFTON        NOT AVBL
CANDO          FAIR       9   5  85 NW10      30.02R WCI  -6
FORT TOTTEN      N/A     12   8  84 W3        29.95S
ROLLA          FAIR      16   9  73 NW9       30.00R WCI   4
RUGBY          FAIR       7   5  92 SW3       30.04R
 ***** THE ABOVE OBSERVATIONS ARE NON NWS ARE NOT QUALITY
        CONTROLLED AND MAY MIS-REPORT RAIN FOR SNOW...
$$

 *****  OTHER OBSERVATIONS SOUTHEAST NORTH DAKOTA *****

CITY           SKY/WX    TMP DP  RH WIND       PRES   REMARKS
COOPERSTOWN    NOT AVBL
VALLEY CITY    FLURRIES  18  14  86 NW12      30.02R WCI   5
OAKES            N/A     12   9  85 NW3       30.04R
GWINNER        SUNNY     16  10  79 W7        30.05R WCI   6
SHEYENNE NWR     N/A     14   8  77 NW6       29.95S WCI   5
BUFFALO        NOT AVBL
WYNDMERE         N/A     16  10  79 W9          N/A  WCI   4
 ***** THE ABOVE OBSERVATIONS ARE NON NWS ARE NOT QUALITY
       CONTROLLED AND MAY MIS-REPORT RAIN FOR SNOW...
$$

  *****  WEATHER ACROSS NORTHERN MINNESOTA  *****

CITY           SKY/WX    TMP DP  RH WIND       PRES   REMARKS
FLAG ISLAND    CLEAR     12   5  73 W12       29.89R WCI  -2
WARROAD        CLEAR      9   7  92 SW7       29.93R WCI  -3
ROSEAU         CLEAR     12   7  79 W7        29.94R WCI   2
HALLOCK        NOT AVBL
THF RVR FALLS  PTCLDY    10   7  85 NW6       29.97R WCI   1
6HR MIN TEMP:   9; 6HR MAX TEMP:  18;

HALSTAD        NOT AVBL
FOSSTON        CLEAR      3   0  85 W3        29.97R
BAUDETTE       CLEAR     12   6  77 NW10      29.89R WCI  -1
6HR MIN TEMP:  10; 6HR MAX TEMP:  15;

WASKISH        CLEAR     12   7  79 SW10      29.92R WCI  -1
CROOKSTON      CLEAR      7   3  85 NW6       30.02R WCI  -3
$$
  *****  WEATHER ACROSS CENTRAL AND WEST MINNESOTA  *****

CITY           SKY/WX    TMP DP  RH WIND       PRES   REMARKS
BEMIDJI        CLEAR      9   4  79 W6        29.93R WCI  -1
PARK RAPIDS    CLEAR      8   2  76 SW5       29.93R WCI   0
6HR MIN TEMP:   6; 6HR MAX TEMP:  14;

WADENA         CLEAR     12   7  79 W7        29.96R WCI   2
DETROIT LAKES  CLEAR     14  10  85 CALM      29.98R
MOORHEAD       CLEAR     10   9  92 W5        30.02R WCI   2
FERGUS FALLS   CLEAR      9   3  78 W6        30.04R WCI  -1
ELBOW LAKE     FAIR       8   4  82 S8        30.00R WCI  -4
6HR MIN TEMP:   8; 6HR MAX TEMP:  15;

MORRIS MN      CLEAR     10   7  85 CALM      30.01R
STAPLES        CLEAR      9   3  78 CALM      29.97R
WHEATON        CLEAR     12   7  79 W6        30.05R WCI   3
$$
  *****  WEATHER ELSEWHERE ACROSS MINNESOTA  *****

CITY           SKY/WX    TMP DP  RH WIND       PRES   REMARKS
DULUTH         CLOUDY    11   2  67 SW20G25   29.93F WCI  -7
6HR MIN TEMP:   6; 6HR MAX TEMP:  11;

INTRNTL FALLS  CLEAR      9   2  73 SW7       29.87R WCI  -2
6HR MIN TEMP:   8; 6HR MAX TEMP:  12;

ELY            CLOUDY    10   1  67 SW8       29.89S WCI  -1
CLOQUET        CLOUDY     9   1  72 SW12G18   29.96F WCI  -6
BRAINERD       MOCLDY    12   5  73 S9        29.97F WCI   0
6HR MIN TEMP:   8; 6HR MAX TEMP:  13;

HIBBING        CLOUDY    11   2  67 SW3       29.93R
6HR MIN TEMP:   2; 6HR MAX TEMP:  11;

ALEXANDRIA     CLEAR     12   5  73 SW10      29.99R WCI  -1
6HR MIN TEMP:  12; 6HR MAX TEMP:  16;

SAINT CLOUD    CLOUDY    13   5  70 S7        30.03F WCI   3
6HR MIN TEMP:   8; 6HR MAX TEMP:  13;

MINNEAPOLIS    PTCLDY    10   1  67 S7        30.10F WCI  -1
6HR MIN TEMP:   7; 6HR MAX TEMP:  13;

$$

  *****  WEATHER ACROSS SOUTH DAKOTA  *****

CITY           SKY/WX    TMP DP  RH WIND       PRES   REMARKS
SIOUX FALLS    PTCLDY    19   9  65 CALM      30.08F
6HR MIN TEMP:  17; 6HR MAX TEMP:  23;

BROOKINGS      NOT AVBL
WATERTOWN      CLEAR      6   1  80 S5        30.03R WCI  -3
6HR MIN TEMP:   6; 6HR MAX TEMP:  13;

HURON          CLOUDY    20  14  77 CALM      30.07S
6HR MIN TEMP:  13; 6HR MAX TEMP:  22;

SISSETON         N/A     25  13  60 NW14      30.02R WCI  13
ABERDEEN       CLEAR     14   9  80 VRB3      30.06R
6HR MIN TEMP:   7; 6HR MAX TEMP:  21;

MITCHELL       CLOUDY    30  19  63 W7        30.10S WCI  23
PIERRE         CLOUDY    27  19  72 W12       30.09R WCI  17
6HR MIN TEMP:  23; 6HR MAX TEMP:  29;

MOBRIDGE       CLEAR     14   9  80 N5        30.04R WCI   6
RAPID CITY     PTCLDY    26  15  63 W3        30.11R
6HR MIN TEMP:  24; 6HR MAX TEMP:  33;

$$

  *****  SOME WEATHER IN NEARBY STATES *****

CITY           SKY/WX    TMP DP  RH WIND       PRES   REMARKS
GLASGOW MT     CLOUDY    27  20  75 SW5       30.04S WCI  22
6HR MIN TEMP:  24; 6HR MAX TEMP:  34;

GREAT FALLS MT CLEAR     36  17  46 SW14      30.13R
6HR MIN TEMP:  29; 6HR MAX TEMP:  37;

CHEYENNE WY    PTCLDY    32  12  43 W13       30.22S WCI  22
6HR MIN TEMP:  31; 6HR MAX TEMP:  36;

SCOTTSBLUFF NE PTCLDY    29  21  72 NW7       30.21R WCI  22
6HR MIN TEMP:  26; 6HR MAX TEMP:  31;

OMAHA NE       PTCLDY    18  12  77 S9        30.20S WCI   7
6HR MIN TEMP:  18; 6HR MAX TEMP:  26;

DES MOINES IA  PTCLDY    23  12  62 S13       30.22S WCI  11
6HR MIN TEMP:  16; 6HR MAX TEMP:  24;

DAVENPORT IA   CLEAR      8  -1  66 S14       30.38F WCI  -8
6HR MIN TEMP:  -2; 6HR MAX TEMP:   8;

CHICAGO IL     MOCLDY     5  -1  76 S9        30.43F WCI  -9
6HR MIN TEMP:   0; 6HR MAX TEMP:   6;

EAU CLAIRE WI  PTCLDY     6  -3  66 S7        30.15F WCI  -6
6HR MIN TEMP:   2; 6HR MAX TEMP:   7;

LA CROSSE WI   MOCLDY     7  -2  66 S13       30.24F WCI  -9
6HR MIN TEMP:   4; 6HR MAX TEMP:   8;

$$

  *****  SOME NATIONAL WEATHER *****

CITY           SKY/WX    TMP DP  RH WIND       PRES   REMARKS


USA.gov is the U.S. government's official web portal to all federal, state and local government web resources and services.